Погода в Поповке

Украина / Полтавская область     49°46′48″N   33°21′14″E
темп.,
°C
ветер,
м/с
пор.,
м/с
влажн.,
%
обл.,
%
осадки,
мм/ч
давл.,
гПа
погр.,
м
12 августа, пт
пт1200:00+23всв61665100 0.1 1016542
03:00+22св51065100 0.1 1016296
06:00+22св61262100 0.0 1016392
09:00+23св61059100 0.1 1016276
12:00+23св5860100 0.3 1017348
15:00+28всв71138100 0.3 1015812
18:00+28ссв71245100 0.1 1014453
21:00+27вюв51044100 0.1 1015540
13 августа, сб
сб1300:00+25ссв61251100 0.1 1013303
03:00+24св81464100 0.1 1013523
06:00+25всв81347100 0.0 1012505
09:00+26в695349 0.9 1012574
12:00+32вюв79323 0.1 10121696
15:00+34в882211 0.4 10102705
18:00+31всв5730100 0.4 1010415
21:00+28св61229100 0.4 1010281
14 августа, вс
вс1400:00+24всв51352100 0.0 1009230
03:00+25всв71639100 0.0 1009475
06:00+26в8164251 0.0 1009510
09:00+28в91337100 0.0 1009711
12:00+28в71039100 0.0 1010613
15:00+34в71121100 0.0 10092934
18:00+34вюв4821100 0.0 10081893
21:00+28св3534100 0.0 1009111
15 августа, пн
пн1500:00+27св81539100 0.0 1008690
03:00+28в8163497 0.0 1007771
06:00+27в111737100 0.0 1008816
09:00+22всв51459100 0.5 1009446
12:00+28в9123046 0.0 1009753
15:00+32в71124100 0.0 10081697
18:00+34всв61022100 0.0 10061225
21:00+30всв61425100 0.0 1006513
16 августа, вт
вт1600:00+27ю3633100 0.0 1007191
03:00+24ю2446100 0.0 1006104
06:00+22ю4980100 0.2 1010373
09:00+23в61470100 0.4 1010772
12:00+23в61066100 0.1 1010735
15:00+25вюв7958100 0.2 10111174
18:00+25юв4658100 0.6 1011623
21:00+20вюв356899 1.6 101053